Time,TemperatureF,DewpointF,PressureIn,WindDirection,WindDirectionDegrees,WindSpeedMPH,WindSpeedGustMPH,Humidity,HourlyPrecipIn,Conditions,Clouds,dailyrainin,SolarRadiationWatts/m^2,SoftwareType,DateUTC
2013-02-12 00:12:00,31.9,30.0,30.17,NNW,336,0.0,0.0,91,0.00,,,0.00,0,weatherlink.com 1.10,2013-02-12 06:12:00,
2013-02-12 00:27:00,31.6,30.0,30.17,NNW,336,0.0,0.0,92,0.00,,,0.00,0,weatherlink.com 1.10,2013-02-12 06:27:00,
2013-02-12 00:42:00,31.2,29.0,30.17,NNW,336,0.0,0.0,93,0.00,,,0.00,0,weatherlink.com 1.10,2013-02-12 06:42:00,
2013-02-12 00:57:00,31.0,29.0,30.16,NNW,336,0.0,0.0,93,0.00,,,0.00,0,weatherlink.com 1.10,2013-02-12 06:57:00,
2013-02-12 01:13:00,30.9,29.0,30.16,NNW,336,0.0,0.0,93,0.00,,,0.00,0,weatherlink.com 1.10,2013-02-12 07:13:00,
2013-02-12 01:28:00,31.0,30.0,30.17,NNW,336,0.0,0.0,94,0.00,,,0.00,0,weatherlink.com 1.10,2013-02-12 07:28:00,
2013-02-12 01:43:00,31.0,30.0,30.17,NNW,336,0.0,0.0,94,0.00,,,0.00,0,weatherlink.com 1.10,2013-02-12 07:43:00,
2013-02-12 01:58:00,30.9,29.0,30.17,NNW,336,0.0,1.0,94,0.00,,,0.00,0,weatherlink.com 1.10,2013-02-12 07:58:00,
2013-02-12 02:13:00,30.8,29.0,30.17,NNW,336,0.0,0.0,94,0.00,,,0.00,0,weatherlink.com 1.10,2013-02-12 08:13:00,
2013-02-12 02:28:00,30.6,29.0,30.17,NNW,336,0.0,0.0,94,0.00,,,0.00,0,weatherlink.com 1.10,2013-02-12 08:28:00,
2013-02-12 02:43:00,30.5,29.0,30.17,NNW,336,0.0,2.0,94,0.00,,,0.00,0,weatherlink.com 1.10,2013-02-12 08:43:00,
2013-02-12 02:58:00,30.4,29.0,30.16,NNW,336,0.0,0.0,94,0.00,,,0.00,0,weatherlink.com 1.10,2013-02-12 08:58:00,
2013-02-12 03:13:00,30.1,29.0,30.16,NNW,336,0.0,1.0,94,0.00,,,0.00,0,weatherlink.com 1.10,2013-02-12 09:13:00,
2013-02-12 03:28:00,29.8,28.0,30.15,NNW,336,0.0,0.0,94,0.00,,,0.00,0,weatherlink.com 1.10,2013-02-12 09:28:00,
2013-02-12 03:43:00,29.5,28.0,30.14,NNW,336,0.0,0.0,94,0.00,,,0.00,0,weatherlink.com 1.10,2013-02-12 09:43:00,
2013-02-12 03:58:00,29.2,28.0,30.14,NNW,336,0.0,0.0,94,0.00,,,0.00,0,weatherlink.com 1.10,2013-02-12 09:58:00,
2013-02-12 04:13:00,28.9,27.0,30.12,NNW,336,0.0,0.0,94,0.00,,,0.00,0,weatherlink.com 1.10,2013-02-12 10:13:00,
2013-02-12 04:28:00,28.8,27.0,30.13,NNW,336,0.0,1.0,94,0.00,,,0.00,0,weatherlink.com 1.10,2013-02-12 10:28:00,
2013-02-12 04:43:00,28.5,27.0,30.12,NNW,336,0.0,0.0,95,0.00,,,0.00,0,weatherlink.com 1.10,2013-02-12 10:43:00,
2013-02-12 04:58:00,28.6,27.0,30.12,NNW,336,0.0,1.0,95,0.00,,,0.00,0,weatherlink.com 1.10,2013-02-12 10:58:00,
2013-02-12 05:13:00,28.5,27.0,30.12,NNW,336,0.0,0.0,95,0.00,,,0.00,0,weatherlink.com 1.10,2013-02-12 11:13:00,
2013-02-12 05:28:00,28.2,27.0,30.12,NNW,336,0.0,0.0,95,0.00,,,0.00,0,weatherlink.com 1.10,2013-02-12 11:28:00,
2013-02-12 05:43:00,28.0,27.0,30.12,NNW,336,0.0,0.0,95,0.00,,,0.00,0,weatherlink.com 1.10,2013-02-12 11:43:00,
2013-02-12 05:58:00,27.9,27.0,30.13,NNW,336,0.0,0.0,95,0.00,,,0.00,0,weatherlink.com 1.10,2013-02-12 11:58:00,
2013-02-12 06:13:00,27.9,27.0,30.13,NNW,336,0.0,2.0,95,0.00,,,0.00,0,weatherlink.com 1.10,2013-02-12 12:13:00,
2013-02-12 06:28:00,28.0,27.0,30.12,NNW,336,0.0,0.0,95,0.00,,,0.00,0,weatherlink.com 1.10,2013-02-12 12:28:00,
2013-02-12 06:43:00,27.9,27.0,30.12,NNW,336,0.0,0.0,95,0.00,,,0.00,0,weatherlink.com 1.10,2013-02-12 12:43:00,
2013-02-12 06:58:00,28.0,27.0,30.12,NNW,336,0.0,2.0,95,0.00,,,0.00,5,weatherlink.com 1.10,2013-02-12 12:58:00,
2013-02-12 07:13:00,28.2,27.0,30.14,NNW,336,0.0,2.0,95,0.00,,,0.00,9,weatherlink.com 1.10,2013-02-12 13:13:00,
2013-02-12 07:28:00,28.5,27.0,30.17,NNW,336,1.0,1.0,95,0.00,,,0.00,12,weatherlink.com 1.10,2013-02-12 13:28:00,
2013-02-12 07:43:00,28.9,28.0,30.16,NNW,336,0.0,1.0,95,0.00,,,0.00,21,weatherlink.com 1.10,2013-02-12 13:43:00,
2013-02-12 07:58:00,29.4,28.0,30.13,NNW,336,0.0,0.0,96,0.00,,,0.00,54,weatherlink.com 1.10,2013-02-12 13:58:00,
2013-02-12 08:13:00,29.9,29.0,30.11,NNW,336,0.0,1.0,96,0.00,,,0.00,172,weatherlink.com 1.10,2013-02-12 14:13:00,
2013-02-12 08:28:00,30.5,29.0,30.14,NNW,336,0.0,2.0,95,0.00,,,0.00,218,weatherlink.com 1.10,2013-02-12 14:28:00,
2013-02-12 08:43:00,31.9,31.0,30.14,NNW,336,0.0,1.0,96,0.00,,,0.00,127,weatherlink.com 1.10,2013-02-12 14:43:00,
2013-02-12 08:58:00,33.7,32.0,30.11,NNW,336,0.0,2.0,94,0.00,,,0.00,137,weatherlink.com 1.10,2013-02-12 14:58:00,
2013-02-12 09:13:00,34.9,33.0,30.12,NNW,336,0.0,1.0,91,0.00,,,0.00,163,weatherlink.com 1.10,2013-02-12 15:13:00,
2013-02-12 09:28:00,35.9,33.0,30.10,NNW,336,0.0,2.0,89,0.00,,,0.00,113,weatherlink.com 1.10,2013-02-12 15:28:00,
2013-02-12 09:43:00,36.7,34.0,30.10,NNW,336,0.0,1.0,88,0.00,,,0.00,95,weatherlink.com 1.10,2013-02-12 15:43:00,
2013-02-12 09:59:00,37.6,34.0,30.10,NNW,336,0.0,1.0,87,0.00,,,0.00,207,weatherlink.com 1.10,2013-02-12 15:59:00,
2013-02-12 10:14:00,38.5,32.0,30.11,NNW,336,0.0,1.0,78,0.00,,,0.00,118,weatherlink.com 1.10,2013-02-12 16:14:00,
2013-02-12 10:29:00,39.2,33.0,30.12,NNW,336,0.0,0.0,78,0.00,,,0.00,105,weatherlink.com 1.10,2013-02-12 16:29:00,
2013-02-12 10:44:00,40.2,33.0,30.14,NNW,336,0.0,2.0,75,0.00,,,0.00,100,weatherlink.com 1.10,2013-02-12 16:44:00,
2013-02-12 10:59:00,41.0,34.0,30.14,NNW,336,1.0,1.0,76,0.00,,,0.00,132,weatherlink.com 1.10,2013-02-12 16:59:00,
2013-02-12 11:14:00,41.5,32.0,30.11,NNW,336,0.0,1.0,70,0.00,,,0.00,146,weatherlink.com 1.10,2013-02-12 17:14:00,
2013-02-12 11:29:00,42.0,34.0,30.11,NNW,336,1.0,2.0,73,0.00,,,0.00,120,weatherlink.com 1.10,2013-02-12 17:29:00,
2013-02-12 11:44:00,42.4,33.0,30.12,NNW,336,0.0,1.0,70,0.00,,,0.00,236,weatherlink.com 1.10,2013-02-12 17:44:00,
2013-02-12 11:59:00,43.8,34.0,30.11,NNW,336,0.0,2.0,68,0.00,,,0.00,267,weatherlink.com 1.10,2013-02-12 17:59:00,
2013-02-12 12:14:00,44.8,34.0,30.09,NNW,336,0.0,2.0,67,0.00,,,0.00,144,weatherlink.com 1.10,2013-02-12 18:14:00,
2013-02-12 12:29:00,45.1,33.0,30.07,North,351,0.0,2.0,63,0.00,,,0.00,158,weatherlink.com 1.10,2013-02-12 18:29:00,
2013-02-12 12:44:00,45.6,34.0,30.05,North,351,0.0,1.0,63,0.00,,,0.00,156,weatherlink.com 1.10,2013-02-12 18:44:00,
2013-02-12 12:59:00,46.1,34.0,30.04,North,351,0.0,2.0,63,0.00,,,0.00,121,weatherlink.com 1.10,2013-02-12 18:59:00,
2013-02-12 13:14:00,46.5,34.0,30.02,North,351,0.0,1.0,62,0.00,,,0.00,156,weatherlink.com 1.10,2013-02-12 19:14:00,
2013-02-12 13:29:00,46.3,34.0,30.03,North,351,0.0,2.0,62,0.00,,,0.00,93,weatherlink.com 1.10,2013-02-12 19:29:00,
2013-02-12 13:44:00,46.0,33.0,30.02,North,351,0.0,1.0,62,0.00,,,0.00,54,weatherlink.com 1.10,2013-02-12 19:44:00,
2013-02-12 13:59:00,46.1,34.0,30.01,NW,320,0.0,3.0,64,0.00,,,0.00,93,weatherlink.com 1.10,2013-02-12 19:59:00,
2013-02-12 14:14:00,46.1,34.0,30.01,NW,320,0.0,3.0,64,0.00,,,0.00,67,weatherlink.com 1.10,2013-02-12 20:14:00,
2013-02-12 14:30:00,46.2,35.0,30.02,NW,320,0.0,1.0,64,0.00,,,0.00,47,weatherlink.com 1.10,2013-02-12 20:30:00,
2013-02-12 14:44:00,46.3,33.0,30.02,NW,320,0.0,1.0,61,0.00,,,0.00,47,weatherlink.com 1.10,2013-02-12 20:44:00,
2013-02-12 14:59:00,46.3,33.0,30.02,NW,320,0.0,1.0,61,0.00,,,0.00,44,weatherlink.com 1.10,2013-02-12 20:59:00,
2013-02-12 15:14:00,46.3,35.0,30.00,NW,322,1.0,3.0,64,0.00,,,0.00,109,weatherlink.com 1.10,2013-02-12 21:14:00,
2013-02-12 15:29:00,46.5,36.0,29.98,North,9,2.0,5.0,66,0.00,,,0.00,181,weatherlink.com 1.10,2013-02-12 21:29:00,
2013-02-12 15:44:00,47.5,34.0,29.98,NNE,32,0.0,4.0,60,0.00,,,0.00,135,weatherlink.com 1.10,2013-02-12 21:44:00,
2013-02-12 15:59:00,47.7,33.0,29.97,NNE,32,0.0,1.0,58,0.00,,,0.00,105,weatherlink.com 1.10,2013-02-12 21:59:00,
2013-02-12 16:15:00,47.4,34.0,29.95,North,355,0.0,2.0,59,0.00,,,0.00,44,weatherlink.com 1.10,2013-02-12 22:15:00,
2013-02-12 16:30:00,47.1,33.0,29.95,North,355,0.0,2.0,59,0.00,,,0.00,23,weatherlink.com 1.10,2013-02-12 22:30:00,
2013-02-12 16:45:00,46.8,33.0,29.93,North,355,0.0,0.0,60,0.00,,,0.00,30,weatherlink.com 1.10,2013-02-12 22:45:00,
2013-02-12 17:00:00,46.6,34.0,29.93,North,355,0.0,1.0,61,0.00,,,0.00,18,weatherlink.com 1.10,2013-02-12 23:00:00,
2013-02-12 17:15:00,46.2,33.0,29.91,North,355,0.0,0.0,61,0.00,,,0.00,7,weatherlink.com 1.10,2013-02-12 23:15:00,
2013-02-12 17:30:00,46.0,33.0,29.91,North,355,0.0,0.0,62,0.00,,,0.00,0,weatherlink.com 1.10,2013-02-12 23:30:00,
2013-02-12 17:45:00,45.7,33.0,29.91,North,355,0.0,0.0,61,0.00,,,0.00,0,weatherlink.com 1.10,2013-02-12 23:45:00,
2013-02-12 18:00:00,45.5,33.0,29.92,North,355,0.0,0.0,61,0.00,,,0.00,0,weatherlink.com 1.10,2013-02-13 00:00:00,
2013-02-12 18:15:00,45.4,33.0,29.92,North,355,0.0,2.0,63,0.00,,,0.00,0,weatherlink.com 1.10,2013-02-13 00:15:00,
2013-02-12 18:30:00,45.4,32.0,29.91,NNE,25,0.0,2.0,59,0.00,,,0.00,0,weatherlink.com 1.10,2013-02-13 00:30:00,
2013-02-12 18:45:00,45.4,31.0,29.92,NNE,30,0.0,0.0,58,0.00,,,0.00,0,weatherlink.com 1.10,2013-02-13 00:45:00,
2013-02-12 19:00:00,45.3,32.0,29.92,NNE,30,0.0,1.0,59,0.00,,,0.00,0,weatherlink.com 1.10,2013-02-13 01:00:00,
2013-02-12 19:15:00,45.4,31.0,29.93,SE,135,0.0,4.0,58,0.00,,,0.00,0,weatherlink.com 1.10,2013-02-13 01:15:00,
2013-02-12 19:30:00,44.8,33.0,29.95,SSW,202,2.0,4.0,64,0.00,,,0.00,0,weatherlink.com 1.10,2013-02-13 01:30:00,
2013-02-12 19:45:00,43.8,35.0,29.96,ESE,111,1.0,4.0,70,0.00,,,0.00,0,weatherlink.com 1.10,2013-02-13 01:45:00,
2013-02-12 20:00:00,42.6,36.0,29.97,ESE,119,0.0,3.0,77,0.01,,,0.01,0,weatherlink.com 1.10,2013-02-13 02:00:00,
2013-02-12 20:15:00,41.6,36.0,29.97,ESE,119,0.0,3.0,80,0.02,,,0.02,0,weatherlink.com 1.10,2013-02-13 02:15:00,
2013-02-12 20:30:00,40.9,36.0,29.97,ESE,119,1.0,3.0,83,0.02,,,0.02,0,weatherlink.com 1.10,2013-02-13 02:30:00,
2013-02-12 20:45:00,40.4,36.0,29.98,ESE,119,0.0,2.0,85,0.03,,,0.03,0,weatherlink.com 1.10,2013-02-13 02:45:00,
2013-02-12 21:00:00,40.1,37.0,29.98,ESE,119,0.0,0.0,87,0.03,,,0.04,0,weatherlink.com 1.10,2013-02-13 03:00:00,
2013-02-12 21:30:00,39.5,37.0,29.98,ESE,119,0.0,0.0,90,0.03,,,0.05,0,weatherlink.com 1.10,2013-02-13 03:30:00,
2013-02-12 21:45:00,39.3,37.0,29.97,ESE,119,0.0,2.0,92,0.03,,,0.06,0,weatherlink.com 1.10,2013-02-13 03:45:00,
2013-02-12 22:00:00,39.0,37.0,29.98,NNW,346,0.0,4.0,91,0.05,,,0.09,0,weatherlink.com 1.10,2013-02-13 04:00:00,
2013-02-12 22:15:00,38.8,37.0,29.98,NNW,346,0.0,0.0,92,0.06,,,0.10,0,weatherlink.com 1.10,2013-02-13 04:15:00,
2013-02-12 22:30:00,38.7,37.0,29.98,NNW,346,0.0,1.0,93,0.07,,,0.12,0,weatherlink.com 1.10,2013-02-13 04:30:00,
2013-02-12 22:45:00,38.5,37.0,29.97,NNW,346,0.0,2.0,94,0.06,,,0.13,0,weatherlink.com 1.10,2013-02-13 04:45:00,
2013-02-12 23:00:00,38.3,37.0,29.97,WNW,298,0.0,4.0,94,0.06,,,0.15,0,weatherlink.com 1.10,2013-02-13 05:00:00,
2013-02-12 23:15:00,37.8,36.0,29.97,NNW,333,2.0,7.0,93,0.06,,,0.16,0,weatherlink.com 1.10,2013-02-13 05:15:00,
2013-02-12 23:30:00,37.6,36.0,29.97,NW,321,2.0,4.0,94,0.05,,,0.17,0,weatherlink.com 1.10,2013-02-13 05:30:00,
2013-02-12 23:45:00,37.6,36.0,29.96,NNW,333,4.0,6.0,94,0.05,,,0.18,0,weatherlink.com 1.10,2013-02-13 05:45:00,